Flag Weather past 2 weeks in Masaya, Nicaragua

Now
84 °F

Passing clouds.


Feels Like: 91 °F
Forecast: 73 / 86 °F
Wind: 5 mph from East

Location: Managua A. C. Sandino

Current Time: Oct 30, 2014 at 11:04:25 AM

Latest Report: Oct 30, 2014 at 10:00 AM


Visibility: N/A

Pressure: 29.83 "Hg

Humidity: 70%

Dew point: 73 °F

Location of MasayaLocation

Historic Weather in Masaya — Graph

°F

Masaya temperature yesterday

Maximum temperature yesterday: 91 °F (at 1:00 PM)
Minimum temperature yesterday: 75 °F (at 4:00 AM)
Average temperature yesterday: 82 °F

Past Weeks' High & Low Weather Summary

 TemperatureHumidityPressure
High91 °F (Oct 25, 3:00 PM)100% (Oct 20, 2:00 AM)29.95 "Hg (Oct 20, 2:00 AM)
Low73 °F (Oct 20, 4:00 AM)56% (Oct 29, 1:00 PM)29.71 "Hg (Oct 20, 2:00 PM)
Average81 °F81%29.83 "Hg
* Reported Oct 15 10:00 AM — Oct 30 10:00 AM, Masaya, Weather by CustomWeather, © 2014

Note: Actual official high and low records may vary slightly from our data, if they occured in-between our weather recording intervals... More about our weather records

Advertising

Masaya weather history for previous 24 hours

 ConditionsComfort  
Time TempWeatherWind HumidityBarometerVisibility
10:00 AM
Oct 30
84 °FPassing clouds.5 mph70%29.83 "HgN/A
9:00 AM84 °FPassing clouds.7 mph70%29.83 "HgN/A
8:00 AM82 °FScattered clouds.7 mph74%29.83 "HgN/A
7:00 AM79 °FScattered clouds.5 mph84%29.80 "HgN/A
6:00 AM73 °FScattered clouds.5 mph94%29.80 "HgN/A
5:00 AM75 °FPassing clouds.No wind94%29.77 "HgN/A
10:00 PM
Oct 29
75 °FPassing clouds.No wind94%29.86 "HgN/A
9:00 PM75 °FPassing clouds.7 mph100%29.86 "Hg6 mi
8:00 PM77 °FPassing clouds.7 mph89%29.86 "HgN/A
7:00 PM77 °FPassing clouds.No wind94%29.83 "HgN/A
6:00 PM79 °FPassing clouds.7 mph84%29.80 "HgN/A
5:00 PM84 °FPassing clouds.9 mph74%29.80 "HgN/A
4:00 PM88 °FPassing clouds.7 mph66%29.74 "HgN/A
3:00 PM91 °FPassing clouds.9 mph56%29.74 "Hg6 mi
2:00 PM91 °FPassing clouds.7 mph59%29.77 "HgN/A
1:00 PM91 °FPassing clouds.7 mph56%29.77 "HgN/A
12:00 PM88 °FPassing clouds.9 mph66%29.83 "HgN/A
11:00 AM88 °FPassing clouds.12 mph66%29.86 "HgN/A
Weather by CustomWeather, © 2014

See weather overviewHow to use our weather pages